Orbital Elements at Epoch 2459000.5 (2020-May-31.0) TDB
Reference: JPL 27 (heliocentric ecliptic J2000)
Element | Value | Uncertainty (1-sigma) | Units |
e | .2095368082472643 | 3.7166e-08 | |
a | 2.396284309510189 | 8.8134e-09 | au |
q | 1.894174543642425 | 8.8771e-08 | au |
i | 4.972118695218718 | 4.4067e-06 | deg |
node | 345.5129538776014 | 3.4123e-05 | deg |
peri | 325.1695784171039 | 3.5078e-05 | deg |
M | 209.1486524238 | 9.0679e-06 | deg |
tp | 2459568.244108661545 (2021-Dec-19.74410866) | 3.5783e-05 | TDB |
period | 1354.895944929582 3.71 | 7.4748e-06 2.046e-08 | d yr |
n | .2657030610706495 | 1.4659e-09 | deg/d |
Q | 2.898394075377953 | 1.066e-08 | au |
|
| | Orbit Determination Parameters
Additional Information
|